| time (UTC) | temp F | wind direction | speed MPH | gust MPH | rain 1hr in | rain 24hr in | rain mn in | humidity % | barometer mb |
| 20260904040204 | 60 | 269 | 0.0 | 0.0 | 0.00 | 0.39 | 0.00 | 97 | 1012.7 |
| 20260904035707 | 60 | 269 | 0.0 | 0.0 | 0.00 | 0.39 | 0.39 | 97 | 1012.8 |
| 20260904035203 | 60 | 269 | 0.0 | 0.0 | 0.00 | 0.39 | 0.39 | 97 | 1012.9 |
| 20260904034706 | 60 | 269 | 0.0 | 0.0 | 0.00 | 0.39 | 0.39 | 97 | 1013.1 |
| 20260904034545 | 60 | 269 | 0.0 | 0.0 | 0.00 | 0.39 | 0.10 | 97 | 1012.8 |
| 20260904034211 | 60 | 269 | 0.0 | 0.0 | 0.00 | 0.39 | 0.39 | 97 | 1013.0 |
| 20260904033704 | 60 | 269 | 0.0 | 0.0 | 0.00 | 0.39 | 0.39 | 97 | 1013.0 |
| 20260904033206 | 60 | 269 | 0.0 | 0.0 | 0.00 | 0.39 | 0.39 | 97 | 1013.1 |
| 20260904033131 | 60 | 269 | 0.0 | 0.0 | 0.00 | 0.39 | 0.10 | 97 | 1012.9 |
| 20260904032705 | 60 | 269 | 0.0 | 0.0 | 0.00 | 0.39 | 0.39 | 97 | 1013.2 |
| 20260904032206 | 60 | 269 | 0.0 | 0.0 | 0.00 | 0.39 | 0.39 | 97 | 1013.3 |
| 20260904031701 | 60 | 269 | 0.0 | 0.0 | 0.00 | 0.39 | 0.39 | 97 | 1013.5 |
| 20260904031533 | 60 | 269 | 0.0 | 0.0 | 0.00 | 0.39 | 0.10 | 97 | 1013.3 |
| 20260904031207 | 60 | 269 | 0.0 | 0.0 | 0.00 | 0.39 | 0.39 | 97 | 1013.5 |
| 20260904030704 | 60 | 269 | 0.0 | 0.0 | 0.00 | 0.39 | 0.39 | 97 | 1013.4 |
| 20260904030201 | 60 | 269 | 0.0 | 0.0 | 0.00 | 0.39 | 0.39 | 97 | 1013.4 |
| 20260904025652 | 60 | 269 | 0.0 | 0.0 | 0.00 | 0.39 | 0.39 | 97 | 1013.3 |
| 20260904024649 | 60 | 269 | 0.0 | 0.0 | 0.00 | 0.39 | 0.39 | 97 | 1013.7 |
| 20260904024529 | 60 | 269 | 0.0 | 0.0 | 0.00 | 0.39 | 0.10 | 97 | 1013.4 |
| 20260904023644 | 61 | 269 | 0.0 | 0.0 | 0.00 | 0.39 | 0.39 | 97 | 1013.4 |
| 20260904023139 | 61 | 269 | 0.0 | 0.0 | 0.00 | 0.39 | 0.39 | 97 | 1013.5 |
| 20260904023134 | 61 | 269 | 0.0 | 0.0 | 0.00 | 0.39 | 0.10 | 97 | 1013.3 |
| 20260904022632 | 61 | 269 | 0.0 | 0.0 | 0.00 | 0.39 | 0.39 | 97 | 1013.7 |
| 20260904022133 | 61 | 269 | 0.0 | 0.0 | 0.00 | 0.39 | 0.39 | 97 | 1013.5 |
| 20260904021630 | 61 | 269 | 0.0 | 0.0 | 0.00 | 0.39 | 0.39 | 97 | 1013.7 |
| 20260904021526 | 61 | 269 | 0.0 | 0.0 | 0.00 | 0.39 | 0.10 | 97 | 1013.5 |
| 20260904021130 | 62 | 269 | 0.0 | 0.0 | 0.00 | 0.39 | 0.39 | 97 | 1013.8 |
| 20260904020630 | 62 | 269 | 0.0 | 0.0 | 0.00 | 0.39 | 0.39 | 97 | 1013.8 |
| 20260904020131 | 62 | 269 | 0.0 | 0.0 | 0.00 | 0.39 | 0.39 | 97 | 1013.9 |
| 20260904020106 | 61 | 269 | 0.0 | 0.0 | 0.00 | 0.39 | 0.10 | 97 | 1013.6 |
| 20260904014658 | 61 | 269 | 0.0 | 0.0 | 0.00 | 0.39 | 0.10 | 97 | 1014.0 |
| 20260904014625 | 62 | 269 | 0.0 | 0.0 | 0.00 | 0.39 | 0.39 | 97 | 1014.2 |
| 20260904014124 | 62 | 269 | 0.0 | 0.0 | 0.00 | 0.39 | 0.39 | 97 | 1014.2 |
| 20260904013122 | 62 | 269 | 0.0 | 0.0 | 0.00 | 0.39 | 0.39 | 97 | 1013.9 |
| 20260904013109 | 61 | 269 | 0.0 | 0.0 | 0.00 | 0.39 | 0.10 | 97 | 1013.6 |
| 20260904012618 | 62 | 269 | 0.0 | 0.0 | 0.00 | 0.39 | 0.39 | 97 | 1013.9 |
| 20260904012118 | 62 | 269 | 0.0 | 0.0 | 0.00 | 0.39 | 0.39 | 97 | 1014.0 |
| 20260904011642 | 61 | 269 | 0.0 | 0.0 | 0.00 | 0.39 | 0.10 | 97 | 1013.8 |
| 20260904011618 | 62 | 269 | 0.0 | 0.0 | 0.00 | 0.39 | 0.39 | 97 | 1014.1 |
| 20260904011117 | 62 | 269 | 0.0 | 0.0 | 0.00 | 0.39 | 0.39 | 97 | 1013.9 |
| 20260904010617 | 62 | 269 | 0.0 | 0.0 | 0.00 | 0.39 | 0.39 | 97 | 1014.0 |
| 20260904010117 | 62 | 269 | 0.0 | 0.0 | 0.00 | 0.39 | 0.39 | 97 | 1014.0 |
| 20260904010039 | 61 | 269 | 0.0 | 0.0 | 0.00 | 0.39 | 0.10 | 97 | 1013.6 |
| 20260904005615 | 62 | 269 | 0.0 | 0.0 | 0.00 | 0.39 | 0.39 | 97 | 1014.0 |
| 20260904005113 | 62 | 269 | 0.0 | 0.0 | 0.00 | 0.39 | 0.39 | 97 | 1013.8 |
| 20260904004639 | 61 | 269 | 0.0 | 0.0 | 0.00 | 0.39 | 0.10 | 97 | 1013.5 |
| 20260904004610 | 62 | 269 | 0.0 | 0.0 | 0.00 | 0.39 | 0.39 | 97 | 1013.8 |
| 20260904004109 | 62 | 269 | 0.0 | 0.0 | 0.00 | 0.39 | 0.39 | 97 | 1013.8 |
| 20260904003607 | 62 | 269 | 0.0 | 0.0 | 0.00 | 0.39 | 0.39 | 97 | 1014.0 |
| 20260904003107 | 62 | 269 | 0.0 | 0.0 | 0.00 | 0.39 | 0.39 | 97 | 1013.9 |
| 20260904003032 | 61 | 269 | 0.0 | 0.0 | 0.00 | 0.39 | 0.10 | 97 | 1013.6 |
| 20260904002604 | 62 | 269 | 0.0 | 0.0 | 0.00 | 0.39 | 0.39 | 97 | 1014.0 |
| 20260904002104 | 62 | 269 | 0.0 | 0.0 | 0.00 | 0.39 | 0.39 | 97 | 1013.9 |
| 20260904001620 | 61 | 269 | 0.0 | 0.0 | 0.00 | 0.39 | 0.10 | 97 | 1013.7 |
| 20260904001605 | 62 | 269 | 0.0 | 0.0 | 0.00 | 0.39 | 0.39 | 97 | 1014.0 |
| 20260904001104 | 62 | 269 | 0.0 | 0.0 | 0.01 | 0.39 | 0.39 | 97 | 1014.0 |
| 20260904000602 | 62 | 269 | 0.0 | 0.0 | 0.01 | 0.39 | 0.39 | 96 | 1014.0 |
| 20260904000103 | 62 | 269 | 0.0 | 0.0 | 0.02 | 0.39 | 0.39 | 96 | 1014.1 |
| 20260904000010 | 61 | 269 | 0.0 | 0.0 | 0.02 | 0.39 | 0.10 | 96 | 1013.7 |
| 20260903235101 | 62 | 269 | 0.0 | 0.0 | 0.09 | 0.39 | 0.39 | 96 | 1013.5 |
| 20260903234617 | 61 | 269 | 0.0 | 0.0 | 0.10 | 0.39 | 0.10 | 96 | 1013.2 |
| 20260903234601 | 62 | 269 | 0.0 | 0.0 | 0.10 | 0.39 | 0.39 | 96 | 1013.4 |
| 20260903234102 | 62 | 269 | 0.0 | 0.0 | 0.10 | 0.39 | 0.39 | 96 | 1013.3 |
| 20260903233601 | 62 | 269 | 0.0 | 0.0 | 0.10 | 0.39 | 0.39 | 96 | 1013.3 |
| 20260903233155 | 61 | 269 | 0.0 | 0.0 | 0.10 | 0.39 | 0.10 | 96 | 1013.0 |
| 20260903233101 | 62 | 269 | 0.0 | 0.0 | 0.10 | 0.39 | 0.39 | 96 | 1013.3 |
| 20260903232602 | 62 | 269 | 0.0 | 0.0 | 0.10 | 0.39 | 0.39 | 96 | 1013.3 |
| 20260903232102 | 62 | 269 | 0.0 | 0.0 | 0.10 | 0.39 | 0.39 | 96 | 1013.4 |
| 20260903231604 | 62 | 269 | 0.0 | 0.0 | 0.10 | 0.39 | 0.10 | 96 | 1013.3 |
| 20260903231602 | 62 | 269 | 0.0 | 0.0 | 0.10 | 0.39 | 0.39 | 96 | 1013.5 |
| 20260903231102 | 62 | 269 | 0.0 | 0.0 | 0.09 | 0.38 | 0.38 | 96 | 1013.9 |
| 20260903230603 | 62 | 269 | 0.0 | 0.0 | 0.09 | 0.38 | 0.37 | 95 | 1014.3 |
| 20260903225601 | 62 | 269 | 0.0 | 0.0 | 0.04 | 0.33 | 0.32 | 95 | 1014.6 |
| 20260903224602 | 63 | 269 | 0.0 | 0.0 | 0.00 | 0.29 | 0.29 | 95 | 1014.8 |
| 20260903224547 | 62 | 269 | 0.0 | 0.0 | 0.00 | 0.28 | 0.00 | 95 | 1014.5 |
| 20260903224101 | 63 | 269 | 0.0 | 0.0 | 0.00 | 0.29 | 0.29 | 95 | 1014.7 |
| 20260903223601 | 63 | 269 | 0.0 | 0.0 | 0.00 | 0.29 | 0.29 | 95 | 1014.4 |
| 20260903223143 | 63 | 269 | 0.0 | 0.0 | 0.00 | 0.28 | 0.00 | 94 | 1014.1 |
| 20260903223103 | 63 | 269 | 0.0 | 0.0 | 0.00 | 0.29 | 0.29 | 94 | 1014.4 |
| 20260903222102 | 63 | 269 | 0.0 | 0.0 | 0.00 | 0.29 | 0.29 | 94 | 1014.3 |
| 20260903221601 | 64 | 269 | 0.0 | 0.0 | 0.00 | 0.29 | 0.29 | 94 | 1014.4 |
| 20260903221538 | 63 | 269 | 0.0 | 0.0 | 0.00 | 0.28 | 0.00 | 94 | 1014.1 |
| 20260903221102 | 64 | 269 | 0.0 | 0.0 | 0.00 | 0.29 | 0.29 | 94 | 1014.4 |
| 20260903220602 | 64 | 269 | 0.0 | 1.0 | 0.00 | 0.29 | 0.29 | 94 | 1014.4 |
| 20260903220137 | 63 | 269 | 0.0 | 1.0 | 0.00 | 0.28 | 0.00 | 93 | 1014.0 |
| 20260903220101 | 64 | 269 | 0.0 | 1.0 | 0.00 | 0.29 | 0.29 | 93 | 1014.3 |
| 20260903215604 | 64 | 269 | 0.0 | 0.0 | 0.00 | 0.29 | 0.29 | 93 | 1014.3 |
| 20260903215101 | 64 | 269 | 0.0 | 0.0 | 0.00 | 0.29 | 0.29 | 94 | 1014.2 |
| 20260903214600 | 64 | 269 | 0.0 | 0.0 | 0.00 | 0.29 | 0.29 | 94 | 1014.3 |
| 20260903214537 | 63 | 269 | 0.0 | 0.0 | 0.00 | 0.28 | 0.00 | 94 | 1014.0 |
| 20260903214102 | 64 | 269 | 0.0 | 1.0 | 0.00 | 0.29 | 0.29 | 94 | 1014.2 |
| 20260903213132 | 63 | 269 | 0.0 | 0.0 | 0.00 | 0.28 | 0.00 | 93 | 1014.0 |
| 20260903213101 | 64 | 269 | 0.0 | 0.0 | 0.00 | 0.29 | 0.29 | 93 | 1014.2 |
| 20260903212602 | 64 | 269 | 0.0 | 0.0 | 0.00 | 0.29 | 0.29 | 93 | 1014.2 |
| 20260903212101 | 64 | 269 | 0.0 | 0.0 | 0.00 | 0.29 | 0.29 | 94 | 1014.2 |
| 20260903211603 | 64 | 269 | 0.0 | 0.0 | 0.00 | 0.29 | 0.29 | 93 | 1014.1 |
| 20260903211531 | 63 | 269 | 0.0 | 0.0 | 0.00 | 0.28 | 0.00 | 93 | 1013.9 |
| 20260903211100 | 64 | 269 | 0.0 | 0.0 | 0.00 | 0.29 | 0.29 | 92 | 1014.3 |
| 20260903210132 | 63 | 269 | 0.0 | 0.0 | 0.00 | 0.28 | 0.00 | 93 | 1014.0 |
| 20260903210106 | 63 | 269 | 0.0 | 0.0 | 0.00 | 0.29 | 0.29 | 93 | 1014.3 |
| 20260903205102 | 64 | 269 | 0.0 | 0.0 | 0.00 | 0.29 | 0.29 | 92 | 1014.3 |
| 20260903204530 | 63 | 269 | 0.0 | 0.0 | 0.00 | 0.28 | 0.00 | 92 | 1014.1 |
| 20260903204101 | 64 | 269 | 0.0 | 0.0 | 0.00 | 0.29 | 0.29 | 92 | 1014.4 |
| 20260903203602 | 64 | 269 | 0.0 | 0.0 | 0.00 | 0.29 | 0.29 | 91 | 1014.4 |
| 20260903203123 | 64 | 269 | 0.0 | 0.0 | 0.00 | 0.28 | 0.00 | 91 | 1014.3 |
| 20260903203102 | 64 | 269 | 0.0 | 0.0 | 0.00 | 0.29 | 0.29 | 91 | 1014.6 |
| 20260903201602 | 64 | 269 | 0.0 | 0.0 | 0.00 | 0.29 | 0.29 | 91 | 1014.3 |
| 20260903201516 | 64 | 269 | 0.0 | 0.0 | 0.00 | 0.28 | 0.00 | 91 | 1014.0 |
| 20260903201102 | 64 | 269 | 0.0 | 0.0 | 0.00 | 0.29 | 0.29 | 90 | 1014.3 |
| 20260903200109 | 64 | 269 | 0.0 | 1.0 | 0.00 | 0.28 | 0.00 | 92 | 1014.3 |
| 20260903195602 | 64 | 269 | 0.0 | 1.0 | 0.00 | 0.29 | 0.29 | 91 | 1014.7 |
| 20260903195058 | 64 | 269 | 0.0 | 1.0 | 0.00 | 0.29 | 0.29 | 91 | 1014.7 |
| 20260903194552 | 64 | 269 | 0.0 | 1.0 | 0.00 | 0.29 | 0.29 | 91 | 1014.8 |
| 20260903194504 | 63 | 269 | 0.0 | 1.0 | 0.00 | 0.28 | 0.00 | 91 | 1014.6 |
| 20260903194046 | 64 | 269 | 0.0 | 1.0 | 0.00 | 0.29 | 0.29 | 92 | 1014.9 |
| 20260903193537 | 64 | 269 | 0.0 | 1.0 | 0.00 | 0.29 | 0.29 | 92 | 1014.9 |
| 20260903193105 | 63 | 269 | 0.0 | 2.0 | 0.00 | 0.28 | 0.00 | 92 | 1014.7 |
| 20260903193036 | 64 | 269 | 0.0 | 2.0 | 0.00 | 0.29 | 0.29 | 92 | 1015.0 |
| 20260903192534 | 64 | 269 | 0.0 | 2.0 | 0.00 | 0.29 | 0.29 | 91 | 1015.0 |
| 20260903192029 | 64 | 269 | 0.0 | 2.0 | 0.00 | 0.29 | 0.29 | 91 | 1015.0 |
| 20260903191531 | 64 | 269 | 0.0 | 2.0 | 0.00 | 0.29 | 0.29 | 91 | 1015.0 |
| 20260903191501 | 63 | 269 | 0.0 | 2.0 | 0.00 | 0.28 | 0.00 | 91 | 1014.7 |
| 20260903191029 | 64 | 269 | 0.0 | 0.0 | 0.00 | 0.29 | 0.29 | 92 | 1015.1 |
| 20260903190533 | 64 | 269 | 0.0 | 0.0 | 0.00 | 0.29 | 0.29 | 91 | 1015.0 |
| 20260903190106 | 63 | 269 | 0.0 | 0.0 | 0.00 | 0.28 | 0.00 | 91 | 1014.8 |
| 20260903190030 | 64 | 269 | 0.0 | 1.0 | 0.00 | 0.29 | 0.29 | 91 | 1015.0 |
| 20260903185530 | 64 | 269 | 0.0 | 2.0 | 0.00 | 0.29 | 0.29 | 91 | 1015.0 |
| 20260903185030 | 64 | 269 | 0.0 | 2.0 | 0.00 | 0.29 | 0.29 | 90 | 1015.1 |
| 20260903184530 | 64 | 269 | 0.0 | 1.0 | 0.00 | 0.29 | 0.29 | 90 | 1015.1 |
| 20260903184502 | 64 | 269 | 0.0 | 1.0 | 0.00 | 0.28 | 0.00 | 90 | 1014.8 |
| 20260903184030 | 64 | 269 | 0.0 | 2.0 | 0.00 | 0.29 | 0.29 | 90 | 1015.1 |
| 20260903183529 | 64 | 269 | 0.0 | 2.0 | 0.00 | 0.29 | 0.29 | 91 | 1015.1 |
| 20260903183055 | 63 | 269 | 0.0 | 2.0 | 0.00 | 0.28 | 0.00 | 90 | 1014.9 |
| 20260903183029 | 64 | 269 | 0.0 | 2.0 | 0.00 | 0.29 | 0.29 | 90 | 1015.2 |
| 20260903182531 | 64 | 269 | 0.0 | 2.0 | 0.00 | 0.29 | 0.29 | 91 | 1015.2 |
| 20260903181642 | 63 | 269 | 0.0 | 2.0 | 0.00 | 0.28 | 0.00 | 91 | 1015.0 |
| 20260903181522 | 64 | 269 | 0.0 | 3.0 | 0.00 | 0.29 | 0.29 | 92 | 1015.3 |
| 20260903181019 | 64 | 269 | 0.0 | 3.0 | 0.00 | 0.29 | 0.29 | 90 | 1015.3 |
| 20260903180519 | 64 | 269 | 0.0 | 2.0 | 0.00 | 0.29 | 0.29 | 91 | 1015.3 |
| 20260903180041 | 63 | 269 | 0.0 | 1.0 | 0.00 | 0.28 | 0.00 | 91 | 1015.0 |
| 20260903180018 | 64 | 269 | 0.0 | 1.0 | 0.00 | 0.29 | 0.29 | 92 | 1015.3 |
| 20260903175017 | 64 | 269 | 0.0 | 1.0 | 0.00 | 0.29 | 0.29 | 91 | 1015.4 |
| 20260903174639 | 63 | 269 | 0.0 | 0.0 | 0.00 | 0.28 | 0.00 | 92 | 1015.2 |
| 20260903174517 | 64 | 269 | 0.0 | 2.0 | 0.00 | 0.29 | 0.29 | 92 | 1015.4 |
| 20260903173511 | 63 | 269 | 0.0 | 3.0 | 0.00 | 0.29 | 0.29 | 91 | 1015.3 |
| 20260903173031 | 63 | 269 | 0.0 | 2.0 | 0.00 | 0.28 | 0.00 | 91 | 1015.1 |
| 20260903173010 | 63 | 269 | 0.0 | 2.0 | 0.00 | 0.29 | 0.29 | 91 | 1015.3 |
| 20260903171630 | 63 | 269 | 0.0 | 0.0 | 0.00 | 0.28 | 0.00 | 91 | 1015.2 |
| 20260903171508 | 63 | 269 | 0.0 | 0.0 | 0.00 | 0.29 | 0.29 | 92 | 1015.4 |
| 20260903171005 | 63 | 269 | 0.0 | 2.0 | 0.00 | 0.29 | 0.29 | 92 | 1015.4 |
| 20260903170502 | 63 | 269 | 0.0 | 2.0 | 0.00 | 0.29 | 0.29 | 91 | 1015.5 |
| 20260903170035 | 62 | 269 | 0.0 | 0.0 | 0.00 | 0.28 | 0.00 | 92 | 1015.3 |
| 20260903170003 | 63 | 269 | 0.0 | 0.0 | 0.00 | 0.29 | 0.29 | 92 | 1015.5 |
| 20260903165503 | 62 | 269 | 0.0 | 0.0 | 0.00 | 0.29 | 0.29 | 92 | 1015.4 |
| 20260903165002 | 62 | 269 | 0.0 | 0.0 | 0.00 | 0.29 | 0.29 | 91 | 1015.4 |
| 20260903164001 | 62 | 269 | 0.0 | 1.0 | 0.00 | 0.29 | 0.29 | 92 | 1015.7 |
| 20260903163502 | 62 | 269 | 0.0 | 3.0 | 0.00 | 0.29 | 0.29 | 93 | 1015.6 |
| 20260903163009 | 61 | 269 | 0.0 | 3.0 | 0.00 | 0.28 | 0.00 | 92 | 1015.5 |
| 20260903163001 | 62 | 269 | 0.0 | 3.0 | 0.00 | 0.29 | 0.29 | 92 | 1015.7 |
| 20260903162502 | 62 | 269 | 0.0 | 2.0 | 0.00 | 0.29 | 0.29 | 92 | 1015.8 |
| 20260903162002 | 62 | 269 | 0.0 | 2.0 | 0.00 | 0.29 | 0.29 | 92 | 1015.9 |
| 20260903161601 | 61 | 269 | 0.0 | 2.0 | 0.00 | 0.28 | 0.00 | 92 | 1015.7 |
| 20260903161504 | 62 | 269 | 0.0 | 2.0 | 0.00 | 0.29 | 0.29 | 92 | 1016.0 |
| 20260903161002 | 62 | 269 | 0.0 | 2.0 | 0.00 | 0.29 | 0.29 | 92 | 1016.0 |
| 20260903160502 | 62 | 269 | 0.0 | 2.0 | 0.00 | 0.29 | 0.29 | 92 | 1016.1 |
| 20260903160010 | 61 | 269 | 0.0 | 2.0 | 0.00 | 0.28 | 0.00 | 93 | 1015.9 |
| 20260903160003 | 62 | 269 | 0.0 | 2.0 | 0.00 | 0.29 | 0.29 | 93 | 1016.1 |
| 20260903155500 | 61 | 269 | 0.0 | 0.0 | 0.00 | 0.29 | 0.29 | 93 | 1016.1 |
| 20260903155002 | 61 | 269 | 0.0 | 1.0 | 0.00 | 0.29 | 0.29 | 93 | 1016.3 |
| 20260903154549 | 61 | 269 | 0.0 | 3.0 | 0.00 | 0.28 | 0.00 | 94 | 1016.1 |
| 20260903154501 | 61 | 269 | 0.0 | 3.0 | 0.00 | 0.29 | 0.29 | 94 | 1016.3 |
| 20260903153138 | 60 | 269 | 1.0 | 3.0 | 0.00 | 0.28 | 0.00 | 93 | 1016.2 |
| 20260903153001 | 61 | 269 | 0.0 | 3.0 | 0.00 | 0.29 | 0.29 | 93 | 1016.3 |
| 20260903152503 | 61 | 269 | 0.0 | 1.0 | 0.00 | 0.29 | 0.29 | 93 | 1016.5 |
| 20260903151002 | 61 | 269 | 0.0 | 1.0 | 0.00 | 0.29 | 0.29 | 93 | 1016.8 |
| 20260903150502 | 61 | 269 | 0.0 | 3.0 | 0.00 | 0.29 | 0.29 | 93 | 1016.7 |
| 20260903150137 | 60 | 269 | 0.0 | 3.0 | 0.00 | 0.28 | 0.00 | 93 | 1016.5 |
| 20260903150002 | 61 | 269 | 1.0 | 4.0 | 0.00 | 0.29 | 0.29 | 93 | 1016.7 |
| 20260903145500 | 61 | 269 | 1.0 | 5.0 | 0.00 | 0.29 | 0.29 | 93 | 1016.7 |
| 20260903144534 | 61 | 269 | 1.0 | 5.0 | 0.00 | 0.28 | 0.00 | 92 | 1016.5 |
| 20260903144502 | 61 | 269 | 1.0 | 5.0 | 0.00 | 0.29 | 0.29 | 92 | 1016.7 |
| 20260903144003 | 61 | 269 | 1.0 | 5.0 | 0.00 | 0.29 | 0.29 | 93 | 1016.7 |
| 20260903143502 | 61 | 269 | 1.0 | 6.0 | 0.00 | 0.29 | 0.29 | 92 | 1016.7 |
| 20260903143125 | 61 | 269 | 1.0 | 6.0 | 0.00 | 0.28 | 0.00 | 92 | 1016.6 |
| 20260903143001 | 61 | 269 | 0.0 | 6.0 | 0.00 | 0.29 | 0.29 | 92 | 1016.7 |
| 20260903142501 | 61 | 269 | 1.0 | 3.0 | 0.00 | 0.29 | 0.29 | 94 | 1016.7 |
| 20260903142002 | 61 | 269 | 1.0 | 3.0 | 0.00 | 0.29 | 0.29 | 94 | 1016.7 |
| 20260903141517 | 60 | 269 | 0.0 | 3.0 | 0.00 | 0.28 | 0.00 | 94 | 1016.7 |
| 20260903141502 | 61 | 269 | 1.0 | 3.0 | 0.00 | 0.29 | 0.29 | 94 | 1016.8 |
| 20260903141002 | 60 | 269 | 1.0 | 4.0 | 0.00 | 0.29 | 0.29 | 94 | 1016.9 |
| 20260903140502 | 60 | 269 | 1.0 | 5.0 | 0.00 | 0.29 | 0.29 | 94 | 1016.9 |
| 20260903140112 | 59 | 269 | 1.0 | 5.0 | 0.00 | 0.28 | 0.00 | 94 | 1016.8 |
| 20260903140001 | 60 | 269 | 0.0 | 5.0 | 0.00 | 0.29 | 0.29 | 95 | 1017.0 |
| 20260903135502 | 60 | 269 | 0.0 | 1.0 | 0.00 | 0.29 | 0.29 | 95 | 1017.0 |
| 20260903134958 | 59 | 269 | 0.0 | 4.0 | 0.00 | 0.29 | 0.29 | 95 | 1017.0 |
| 20260903134509 | 59 | 269 | 0.0 | 4.0 | 0.00 | 0.28 | 0.00 | 95 | 1016.9 |
| 20260903134500 | 59 | 269 | 1.0 | 4.0 | 0.00 | 0.29 | 0.29 | 95 | 1017.0 |
| 20260903133958 | 59 | 269 | 1.0 | 3.0 | 0.00 | 0.29 | 0.29 | 95 | 1017.0 |
| 20260903133500 | 59 | 269 | 0.0 | 3.0 | 0.00 | 0.29 | 0.29 | 95 | 1017.0 |
| 20260903132458 | 59 | 269 | 0.0 | 2.0 | 0.00 | 0.29 | 0.29 | 96 | 1017.1 |
| 20260903131507 | 58 | 269 | 0.0 | 3.0 | 0.00 | 0.28 | 0.00 | 96 | 1017.1 |
| 20260903131459 | 58 | 269 | 0.0 | 3.0 | 0.00 | 0.29 | 0.29 | 96 | 1017.3 |
| 20260903130959 | 58 | 269 | 0.0 | 3.0 | 0.00 | 0.29 | 0.29 | 96 | 1017.2 |
| 20260903130457 | 58 | 269 | 0.0 | 0.0 | 0.00 | 0.29 | 0.29 | 96 | 1017.3 |
| 20260903125458 | 58 | 269 | 0.0 | 0.0 | 0.00 | 0.29 | 0.29 | 96 | 1017.4 |
| 20260903124957 | 58 | 269 | 0.0 | 0.0 | 0.00 | 0.29 | 0.29 | 95 | 1017.4 |
| 20260903124506 | 57 | 269 | 0.0 | 0.0 | 0.00 | 0.28 | 0.00 | 95 | 1017.4 |
| 20260903124456 | 58 | 269 | 0.0 | 0.0 | 0.00 | 0.29 | 0.29 | 95 | 1017.5 |
| 20260903123956 | 58 | 269 | 0.0 | 0.0 | 0.00 | 0.29 | 0.29 | 95 | 1017.5 |
| 20260903123501 | 58 | 269 | 0.0 | 0.0 | 0.00 | 0.29 | 0.29 | 95 | 1017.4 |
| 20260903122457 | 58 | 269 | 0.0 | 1.0 | 0.00 | 0.29 | 0.29 | 95 | 1017.5 |
| 20260903121957 | 57 | 269 | 0.0 | 2.0 | 0.00 | 0.29 | 0.29 | 94 | 1017.5 |
| 20260903121514 | 57 | 269 | 0.0 | 1.0 | 0.00 | 0.28 | 0.00 | 94 | 1017.4 |
| 20260903121457 | 57 | 269 | 0.0 | 1.0 | 0.00 | 0.29 | 0.29 | 94 | 1017.5 |
| 20260903120952 | 57 | 269 | 0.0 | 2.0 | 0.00 | 0.29 | 0.29 | 94 | 1017.5 |
| 20260903120453 | 58 | 269 | 0.0 | 2.0 | 0.00 | 0.29 | 0.29 | 94 | 1017.7 |
| 20260903120119 | 57 | 269 | 0.0 | 2.0 | 0.00 | 0.28 | 0.00 | 94 | 1017.4 |
| 20260903115953 | 57 | 269 | 0.0 | 2.0 | 0.00 | 0.29 | 0.29 | 94 | 1017.5 |
| 20260903114954 | 57 | 269 | 0.0 | 3.0 | 0.00 | 0.29 | 0.29 | 94 | 1017.5 |
| 20260903113954 | 58 | 270 | 0.0 | 4.0 | 0.01 | 0.29 | 0.29 | 94 | 1017.8 |
| 20260903113454 | 58 | 270 | 1.0 | 5.0 | 0.02 | 0.29 | 0.29 | 94 | 1017.5 |
| 20260903113053 | 57 | 270 | 0.0 | 5.0 | 0.02 | 0.28 | 0.00 | 94 | 1017.4 |
| 20260903112953 | 58 | 270 | 1.0 | 5.0 | 0.02 | 0.29 | 0.29 | 94 | 1017.5 |
| 20260903112452 | 58 | 270 | 1.0 | 4.0 | 0.02 | 0.29 | 0.29 | 94 | 1017.7 |
| 20260903111948 | 58 | 270 | 1.0 | 4.0 | 0.02 | 0.29 | 0.29 | 94 | 1017.9 |
| 20260903111650 | 57 | 270 | 0.0 | 3.0 | 0.02 | 0.28 | 0.00 | 95 | 1017.7 |
| 20260903111448 | 58 | 270 | 0.0 | 3.0 | 0.02 | 0.29 | 0.29 | 95 | 1017.9 |
| 20260903110945 | 58 | 270 | 1.0 | 3.0 | 0.02 | 0.29 | 0.29 | 95 | 1017.9 |
| 20260903110042 | 57 | 270 | 2.0 | 6.0 | 0.03 | 0.28 | 0.28 | 95 | 1017.6 |
| 20260903105946 | 58 | 270 | 1.0 | 6.0 | 0.03 | 0.29 | 0.29 | 95 | 1017.9 |
| 20260903105444 | 58 | 270 | 1.0 | 6.0 | 0.03 | 0.29 | 0.29 | 95 | 1017.8 |
| 20260903104944 | 58 | 270 | 1.0 | 5.0 | 0.03 | 0.29 | 0.29 | 95 | 1017.9 |
| 20260903104639 | 57 | 270 | 1.0 | 5.0 | 0.03 | 0.28 | 0.28 | 95 | 1017.7 |
| 20260903104446 | 58 | 270 | 1.0 | 5.0 | 0.03 | 0.29 | 0.29 | 95 | 1017.9 |
| 20260903103945 | 58 | 270 | 1.0 | 3.0 | 0.02 | 0.28 | 0.27 | 95 | 1017.8 |
| 20260903103442 | 58 | 270 | 1.0 | 5.0 | 0.01 | 0.27 | 0.27 | 95 | 1017.8 |
| 20260903103032 | 57 | 270 | 0.0 | 5.0 | 0.01 | 0.27 | 0.27 | 95 | 1017.5 |
| 20260903102943 | 58 | 270 | 1.0 | 5.0 | 0.01 | 0.27 | 0.27 | 95 | 1017.7 |
| 20260903101944 | 58 | 270 | 1.0 | 4.0 | 0.01 | 0.27 | 0.27 | 95 | 1017.5 |
| 20260903101631 | 57 | 270 | 1.0 | 4.0 | 0.01 | 0.27 | 0.27 | 95 | 1017.2 |
| 20260903101442 | 58 | 270 | 1.0 | 4.0 | 0.01 | 0.27 | 0.27 | 95 | 1017.4 |
| 20260903100444 | 58 | 270 | 0.0 | 3.0 | 0.02 | 0.27 | 0.26 | 95 | 1017.4 |
| 20260903100032 | 57 | 270 | 0.0 | 4.0 | 0.01 | 0.26 | 0.26 | 95 | 1017.3 |
| 20260903095938 | 58 | 270 | 1.0 | 4.0 | 0.01 | 0.26 | 0.26 | 95 | 1017.5 |
| 20260903095439 | 58 | 270 | 0.0 | 2.0 | 0.01 | 0.26 | 0.26 | 95 | 1017.4 |
| 20260903094939 | 58 | 270 | 0.0 | 2.0 | 0.01 | 0.26 | 0.26 | 95 | 1017.7 |
| 20260903094630 | 57 | 270 | 0.0 | 5.0 | 0.02 | 0.26 | 0.26 | 94 | 1017.4 |
| 20260903094439 | 58 | 270 | 1.0 | 5.0 | 0.02 | 0.26 | 0.26 | 94 | 1017.7 |
| 20260903093940 | 58 | 270 | 1.0 | 5.0 | 0.03 | 0.26 | 0.26 | 94 | 1017.7 |
| 20260903093438 | 58 | 270 | 1.0 | 4.0 | 0.04 | 0.26 | 0.26 | 94 | 1017.4 |
| 20260903093032 | 58 | 270 | 0.0 | 3.0 | 0.06 | 0.26 | 0.26 | 95 | 1017.2 |
| 20260903092938 | 58 | 270 | 1.0 | 4.0 | 0.06 | 0.26 | 0.26 | 95 | 1017.4 |
| 20260903092439 | 58 | 270 | 1.0 | 4.0 | 0.08 | 0.26 | 0.26 | 95 | 1017.5 |
| 20260903091935 | 58 | 270 | 1.0 | 4.0 | 0.10 | 0.26 | 0.26 | 94 | 1017.4 |
| 20260903091630 | 58 | 270 | 1.0 | 4.0 | 0.10 | 0.26 | 0.26 | 94 | 1017.3 |
| 20260903091434 | 58 | 270 | 2.0 | 4.0 | 0.10 | 0.26 | 0.26 | 94 | 1017.5 |
| 20260903090935 | 58 | 270 | 2.0 | 8.0 | 0.10 | 0.25 | 0.25 | 93 | 1017.7 |
| 20260903090435 | 59 | 270 | 2.0 | 8.0 | 0.11 | 0.25 | 0.25 | 94 | 1017.9 |
| 20260903090033 | 58 | 270 | 1.0 | 6.0 | 0.11 | 0.25 | 0.25 | 94 | 1017.6 |
| 20260903085934 | 59 | 270 | 2.0 | 6.0 | 0.11 | 0.25 | 0.25 | 95 | 1017.8 |
| 20260903085434 | 59 | 270 | 2.0 | 8.0 | 0.11 | 0.25 | 0.25 | 95 | 1017.9 |
| 20260903084930 | 59 | 270 | 2.0 | 8.0 | 0.11 | 0.25 | 0.25 | 95 | 1018.0 |
| 20260903084629 | 58 | 270 | 2.0 | 8.0 | 0.10 | 0.24 | 0.24 | 95 | 1017.8 |
| 20260903084429 | 59 | 270 | 1.0 | 7.0 | 0.10 | 0.24 | 0.24 | 95 | 1018.1 |
| 20260903083927 | 59 | 270 | 2.0 | 7.0 | 0.10 | 0.23 | 0.23 | 95 | 1018.2 |
| 20260903083426 | 59 | 270 | 2.0 | 5.0 | 0.09 | 0.22 | 0.22 | 95 | 1018.2 |
| 20260903083025 | 58 | 270 | 1.0 | 6.0 | 0.08 | 0.20 | 0.20 | 95 | 1018.1 |
| 20260903082924 | 59 | 270 | 1.0 | 6.0 | 0.08 | 0.20 | 0.20 | 95 | 1018.3 |
| 20260903082423 | 59 | 270 | 1.0 | 6.0 | 0.06 | 0.18 | 0.17 | 95 | 1018.3 |
| 20260903081917 | 59 | 270 | 1.0 | 4.0 | 0.04 | 0.16 | 0.16 | 95 | 1018.4 |
| 20260903081615 | 58 | 270 | 0.0 | 4.0 | 0.04 | 0.16 | 0.16 | 95 | 1018.2 |
| 20260903081411 | 59 | 270 | 1.0 | 5.0 | 0.04 | 0.16 | 0.15 | 95 | 1018.4 |
| 20260903080904 | 59 | 270 | 1.0 | 5.0 | 0.04 | 0.15 | 0.15 | 95 | 1018.2 |
| 20260903080404 | 59 | 270 | 0.0 | 4.0 | 0.04 | 0.14 | 0.14 | 96 | 1018.2 |
| 20260903080128 | 58 | 270 | 1.0 | 3.0 | 0.05 | 0.14 | 0.14 | 96 | 1018.2 |
| 20260903075404 | 59 | 270 | 1.0 | 3.0 | 0.06 | 0.14 | 0.14 | 96 | 1018.5 |
| 20260903074902 | 59 | 270 | 1.0 | 3.0 | 0.07 | 0.14 | 0.14 | 96 | 1018.4 |
| 20260903074637 | 58 | 270 | 1.0 | 3.0 | 0.07 | 0.14 | 0.14 | 96 | 1018.2 |
| 20260903074401 | 59 | 270 | 1.0 | 3.0 | 0.07 | 0.14 | 0.14 | 95 | 1018.3 |
| 20260903073902 | 59 | 270 | 1.0 | 3.0 | 0.07 | 0.13 | 0.13 | 95 | 1018.4 |
| 20260903073401 | 59 | 270 | 1.0 | 5.0 | 0.07 | 0.13 | 0.13 | 95 | 1018.3 |
| 20260903073153 | 58 | 270 | 0.0 | 5.0 | 0.07 | 0.13 | 0.13 | 95 | 1018.1 |
| 20260903072901 | 59 | 270 | 1.0 | 5.0 | 0.06 | 0.12 | 0.12 | 95 | 1018.3 |
| 20260903072403 | 59 | 270 | 1.0 | 4.0 | 0.06 | 0.12 | 0.12 | 95 | 1018.5 |
| 20260903071902 | 58 | 270 | 1.0 | 6.0 | 0.06 | 0.12 | 0.12 | 95 | 1018.5 |
| 20260903071634 | 58 | 270 | 0.0 | 6.0 | 0.06 | 0.12 | 0.12 | 95 | 1018.2 |
| 20260903070902 | 58 | 270 | 2.0 | 7.0 | 0.05 | 0.11 | 0.11 | 95 | 1018.6 |
| 20260903070403 | 59 | 270 | 1.0 | 7.0 | 0.05 | 0.10 | 0.10 | 95 | 1018.7 |
| 20260903070143 | 58 | 270 | 1.0 | 4.0 | 0.05 | 0.10 | 0.10 | 95 | 1018.5 |
| 20260903065902 | 58 | 270 | 1.0 | 6.0 | 0.05 | 0.09 | 0.09 | 95 | 1018.7 |
| 20260903065401 | 58 | 270 | 2.0 | 6.0 | 0.04 | 0.08 | 0.07 | 95 | 1019.0 |
| 20260903064902 | 58 | 270 | 1.0 | 5.0 | 0.03 | 0.07 | 0.07 | 95 | 1019.0 |
| 20260903064542 | 58 | 270 | 1.0 | 4.0 | 0.03 | 0.07 | 0.07 | 95 | 1018.8 |
| 20260903064402 | 58 | 270 | 1.0 | 4.0 | 0.03 | 0.07 | 0.07 | 95 | 1019.1 |
| 20260903063902 | 58 | 270 | 1.0 | 4.0 | 0.02 | 0.06 | 0.06 | 95 | 1019.1 |
| 20260903063401 | 58 | 270 | 0.0 | 3.0 | 0.03 | 0.06 | 0.06 | 95 | 1019.3 |
| 20260903063136 | 58 | 270 | 0.0 | 2.0 | 0.03 | 0.06 | 0.06 | 95 | 1019.0 |
| 20260903062902 | 58 | 270 | 1.0 | 2.0 | 0.03 | 0.06 | 0.06 | 95 | 1019.3 |
| 20260903062402 | 58 | 270 | 1.0 | 3.0 | 0.03 | 0.06 | 0.06 | 95 | 1019.3 |
| 20260903061902 | 58 | 270 | 1.0 | 3.0 | 0.03 | 0.06 | 0.06 | 95 | 1019.4 |
| 20260903061533 | 58 | 270 | 0.0 | 4.0 | 0.04 | 0.06 | 0.06 | 95 | 1019.2 |
| 20260903061401 | 58 | 270 | 0.0 | 4.0 | 0.04 | 0.06 | 0.06 | 95 | 1019.4 |
| 20260903060401 | 58 | 270 | 1.0 | 5.0 | 0.03 | 0.05 | 0.05 | 95 | 1019.4 |
| 20260903060117 | 58 | 270 | 0.0 | 4.0 | 0.04 | 0.05 | 0.05 | 95 | 1019.3 |
| 20260903055902 | 58 | 270 | 1.0 | 5.0 | 0.03 | 0.04 | 0.04 | 95 | 1019.6 |
| 20260903054902 | 58 | 270 | 0.0 | 2.0 | 0.03 | 0.04 | 0.04 | 94 | 1019.8 |
| 20260903054516 | 58 | 270 | 0.0 | 2.0 | 0.04 | 0.04 | 0.04 | 94 | 1019.5 |
| 20260903054359 | 58 | 270 | 0.0 | 2.0 | 0.04 | 0.04 | 0.04 | 94 | 1019.8 |
| 20260903053849 | 58 | 270 | 0.0 | 3.0 | 0.04 | 0.04 | 0.04 | 94 | 1019.8 |
| 20260903053102 | 58 | 270 | 0.0 | 6.0 | 0.03 | 0.03 | 0.03 | 94 | 1019.6 |
| 20260903052838 | 58 | 270 | 1.0 | 6.0 | 0.03 | 0.03 | 0.03 | 94 | 1019.8 |
| 20260903052338 | 58 | 270 | 1.0 | 3.0 | 0.03 | 0.03 | 0.03 | 94 | 1019.9 |
| 20260903051839 | 58 | 270 | 1.0 | 5.0 | 0.03 | 0.03 | 0.02 | 93 | 1020.1 |
| 20260903051501 | 58 | 270 | 0.0 | 5.0 | 0.02 | 0.02 | 0.02 | 93 | 1019.9 |
| 20260903051337 | 58 | 270 | 1.0 | 5.0 | 0.02 | 0.02 | 0.02 | 93 | 1020.1 |
| 20260903050835 | 58 | 270 | 1.0 | 5.0 | 0.02 | 0.02 | 0.02 | 92 | 1020.1 |
| 20260903045832 | 59 | 270 | 1.0 | 4.0 | 0.01 | 0.01 | 0.01 | 92 | 1020.4 |
| 20260903045332 | 59 | 270 | 1.0 | 4.0 | 0.01 | 0.01 | 0.01 | 92 | 1020.5 |
| 20260903044831 | 59 | 270 | 1.0 | 4.0 | 0.01 | 0.01 | 0.01 | 91 | 1020.4 |
| 20260903044502 | 58 | 270 | 1.0 | 4.0 | 0.00 | 0.00 | 0.00 | 91 | 1020.2 |
| 20260903044330 | 59 | 270 | 1.0 | 4.0 | 0.00 | 0.00 | 0.00 | 90 | 1020.4 |
| 20260903043829 | 59 | 270 | 0.0 | 5.0 | 0.00 | 0.00 | 0.00 | 91 | 1020.3 |
| 20260903043329 | 59 | 270 | 0.0 | 5.0 | 0.00 | 0.00 | 0.00 | 91 | 1020.4 |
| 20260903043101 | 59 | 270 | 0.0 | 5.0 | 0.00 | 0.00 | 0.00 | 91 | 1020.2 |
| 20260903042829 | 59 | 270 | 0.0 | 4.0 | 0.00 | 0.00 | 0.00 | 91 | 1020.4 |
| 20260903042330 | 59 | 270 | 1.0 | 4.0 | 0.00 | 0.00 | 0.00 | 90 | 1020.4 |
| 20260903041831 | 59 | 270 | 1.0 | 5.0 | 0.00 | 0.00 | 0.00 | 91 | 1020.4 |
| 20260903041503 | 59 | 270 | 1.0 | 5.0 | 0.00 | 0.00 | 0.00 | 90 | 1020.3 |
| 20260903041330 | 59 | 270 | 1.0 | 5.0 | 0.00 | 0.00 | 0.00 | 90 | 1020.5 |
| 20260903040831 | 60 | 270 | 1.0 | 3.0 | 0.00 | 0.00 | 0.00 | 90 | 1020.6 |
| 20260903040330 | 60 | 270 | 1.0 | 3.0 | 0.00 | 0.00 | 0.00 | 90 | 1020.6 |